Hickory, NC

12:55 AM EDT on August 30, 2016 (GMT -0400)
Hickory Regional

Weather History for KHKY - December, 2012

Change the Weather History Date:

Monday, December 10, 2012

  Actual Average Record
Temperature  
Mean Temperature 60 °F -  
Max Temperature 62 °F 51 °F 75 °F (2007)
Min Temperature 57 °F 33 °F 18 °F (1977)
Degree Days  
Heating Degree Days 6    
Growing Degree Days 10 (Base 50)    
Moisture  
Dew Point 56 °F    
Average Humidity 89    
Maximum Humidity 94    
Minimum Humidity 82    
Precipitation  
Precipitation 0.05 in - - ()
Sea Level Pressure  
Sea Level Pressure 29.76 in    
Wind  
Wind Speed 7 mph (SSW)    
Max Wind Speed 12 mph    
Max Gust Speed 21 mph    
Visibility 8 miles    
Events Rain    
Averages and records for this station are not official NWS values.
T = Trace of Precipitation, MM = Missing Value Source: NWS Daily Summary

Daily Weather History Graph

Daily Weather History Graph

Search for Another Location

Airport or City:

Trip Planner

Search our weather history database for the weather conditions in past years. The results will help you decide how hot, cold, wet, or windy it might be!

Date:

Astronomy

Dec. 10, 2012 Rise Set
Actual Time 7:24 AM EST 5:12 PM EST
Civil Twilight 6:56 AM EST 5:40 PM EST
Nautical Twilight 6:24 AM EST 6:12 PM EST
Astronomical Twilight 5:53 AM EST 6:43 PM EST
Moon 4:10 AM EST (12/10) 2:57 PM EST (12/10)
Length of Visible Light 10h 44m
Length of Day
9h 47m
Waning Crescent, 10% of the Moon is Illuminated
Dec 10
Waning Crescent
Dec 13
New
Dec 20
First Quarter
Dec 28
Full
Jan 4
Last Quarter

Hourly Weather History & Observations

Time (EST) Temp. Dew Point Humidity Pressure Visibility Wind Dir Wind Speed Gust Speed Precip Events Conditions
12:17 AM 59.0 °F 57.2 °F 94% 29.98 in 8.0 mi SSW 6.9 mph - N/A   Mostly Cloudy
12:24 AM 59.0 °F 55.4 °F 88% 29.97 in 8.0 mi SSW 5.8 mph - N/A   Overcast
12:42 AM 59.0 °F 55.4 °F 88% 29.96 in 8.0 mi SSW 6.9 mph - N/A   Overcast
12:53 AM 59.0 °F 55.9 °F 90% 29.92 in 8.0 mi SSW 8.1 mph - N/A   Overcast
1:19 AM 57.2 °F 55.4 °F 94% 29.95 in 8.0 mi South 9.2 mph - N/A   Scattered Clouds
1:53 AM 57.9 °F 55.9 °F 93% 29.88 in 8.0 mi South 5.8 mph - N/A   Clear
2:53 AM 57.9 °F 55.0 °F 90% 29.86 in 9.0 mi South 3.5 mph - N/A   Clear
3:53 AM 57.0 °F 55.0 °F 93% 29.85 in 6.0 mi South 3.5 mph - N/A   Clear
4:53 AM 57.9 °F 55.9 °F 93% 29.83 in 7.0 mi SSW 5.8 mph - N/A   Mostly Cloudy
5:03 AM 57.2 °F 55.4 °F 94% 29.87 in 7.0 mi South 5.8 mph - N/A   Overcast
5:41 AM 57.2 °F 55.4 °F 94% 29.85 in 6.0 mi South 6.9 mph - N/A   Scattered Clouds
5:53 AM 57.9 °F 55.0 °F 90% 29.81 in 7.0 mi South 8.1 mph - N/A   Scattered Clouds
6:28 AM 57.2 °F 55.4 °F 94% 29.84 in 8.0 mi SSW 4.6 mph - N/A   Mostly Cloudy
6:53 AM 57.9 °F 55.9 °F 93% 29.80 in 8.0 mi Variable 3.5 mph - N/A   Overcast
7:53 AM 57.9 °F 55.9 °F 93% 29.79 in 7.0 mi SW 4.6 mph - N/A   Overcast
8:53 AM 59.0 °F 55.9 °F 90% 29.78 in 7.0 mi South 9.2 mph - N/A   Overcast
9:01 AM 59.0 °F 55.4 °F 88% 29.82 in 8.0 mi Variable 5.8 mph - N/A   Overcast
9:53 AM 59.0 °F 55.9 °F 90% 29.76 in 8.0 mi South 10.4 mph - 0.00 in Rain Light Rain
10:53 AM 59.0 °F 55.9 °F 90% 29.75 in 6.0 mi SSW 11.5 mph 19.6 mph 0.00 in   Overcast
11:53 AM 59.0 °F 55.9 °F 90% 29.75 in 8.0 mi SW 11.5 mph - N/A   Overcast
12:51 PM 59.0 °F 57.2 °F 94% 29.75 in 6.0 mi South 6.9 mph - 0.01 in Rain Light Rain
12:53 PM 59.0 °F 57.0 °F 93% 29.70 in 8.0 mi SSW 3.5 mph - 0.01 in   Overcast
1:03 PM 59.0 °F 57.2 °F 94% 29.73 in 8.0 mi South 5.8 mph - N/A   Overcast
1:53 PM 61.0 °F 57.0 °F 87% 29.68 in 10.0 mi SSW 9.2 mph 20.7 mph N/A   Overcast
2:53 PM 62.1 °F 57.0 °F 84% 29.67 in 10.0 mi South 9.2 mph - N/A   Overcast
3:23 PM 60.8 °F 57.2 °F 88% 29.71 in 5.0 mi SSW 8.1 mph - 0.01 in Rain Rain
3:53 PM 61.0 °F 57.9 °F 90% 29.68 in 10.0 mi SSW 4.6 mph - 0.02 in Rain Light Rain
4:01 PM 60.8 °F 57.2 °F 88% 29.72 in 10.0 mi Variable 4.6 mph - 0.00 in Rain Light Rain
4:14 PM 60.8 °F 57.2 °F 88% 29.72 in 9.0 mi Variable 5.8 mph - 0.00 in Rain Light Rain
4:44 PM 60.8 °F 57.2 °F 88% 29.72 in 8.0 mi South 8.1 mph - 0.00 in Rain Light Rain
4:53 PM 60.1 °F 57.9 °F 93% 29.68 in 8.0 mi SSW 10.4 mph - 0.01 in Rain Light Rain
5:53 PM 60.1 °F 57.9 °F 93% 29.67 in 10.0 mi South 9.2 mph - 0.01 in Rain Light Rain
6:20 PM 60.8 °F 57.2 °F 88% 29.68 in 10.0 mi South 5.8 mph - 0.00 in   Overcast
6:53 PM 60.1 °F 57.0 °F 90% 29.67 in 10.0 mi SW 8.1 mph - 0.00 in   Overcast
7:26 PM 60.8 °F 55.4 °F 82% 29.71 in 10.0 mi SSW 10.4 mph 17.3 mph N/A   Overcast
7:34 PM 60.8 °F 55.4 °F 82% 29.71 in 10.0 mi SSW 9.2 mph 17.3 mph N/A   Overcast
7:53 PM 60.1 °F 55.9 °F 86% 29.66 in 10.0 mi SSW 9.2 mph - N/A   Mostly Cloudy
8:05 PM 59.0 °F 55.4 °F 88% 29.69 in 10.0 mi SSW 6.9 mph - N/A   Scattered Clouds
8:33 PM 60.8 °F 55.4 °F 82% 29.70 in 10.0 mi SSW 8.1 mph - N/A   Mostly Cloudy
8:53 PM 60.1 °F 55.9 °F 86% 29.65 in 10.0 mi SW 6.9 mph - N/A   Overcast
9:53 PM 60.1 °F 55.9 °F 86% 29.65 in 10.0 mi SW 6.9 mph - N/A   Overcast
10:28 PM 60.8 °F 55.4 °F 82% 29.70 in 10.0 mi SW 11.5 mph - N/A   Overcast
10:53 PM 60.1 °F 55.9 °F 86% 29.66 in 10.0 mi SSW 10.4 mph 17.3 mph N/A   Overcast
11:36 PM 59.0 °F 55.4 °F 88% 29.71 in 10.0 mi SSW 6.9 mph - N/A   Scattered Clouds
11:53 PM 59.0 °F 55.0 °F 87% 29.67 in 10.0 mi West 5.8 mph - N/A   Mostly Cloudy